| time (UTC) | temp F | wind direction | speed MPH | gust MPH | rain 1hr in | rain 24hr in | rain mn in | humidity % | barometer mb |
| 20260901151104 | 83 | 338 | 1.0 | 3.0 | 0.00 | 0.00 | 0.00 | 76 | 1015.2 |
| 20260901150604 | 83 | 256 | 1.0 | 3.0 | 0.00 | 0.00 | 0.00 | 76 | 1015.2 |
| 20260901150104 | 83 | 319 | 1.0 | 3.0 | 0.00 | 0.00 | 0.00 | 76 | 1015.2 |
| 20260901145604 | 83 | 6 | 1.0 | 5.0 | 0.00 | 0.00 | 0.00 | 76 | 1015.3 |
| 20260901145104 | 83 | 333 | 1.0 | 6.0 | 0.00 | 0.00 | 0.00 | 77 | 1015.2 |
| 20260901144604 | 83 | 228 | 2.0 | 5.0 | 0.00 | 0.00 | 0.00 | 77 | 1015.2 |
| 20260901144104 | 82 | 21 | 0.0 | 3.0 | 0.00 | 0.00 | 0.00 | 78 | 1015.2 |
| 20260901143605 | 82 | 343 | 0.0 | 3.0 | 0.00 | 0.00 | 0.00 | 79 | 1015.2 |
| 20260901143104 | 82 | 269 | 0.0 | 3.0 | 0.00 | 0.00 | 0.00 | 78 | 1015.1 |
| 20260901142604 | 82 | 24 | 0.0 | 1.0 | 0.00 | 0.00 | 0.00 | 78 | 1014.9 |
| 20260901142105 | 82 | 78 | 0.0 | 1.0 | 0.00 | 0.00 | 0.00 | 78 | 1014.9 |
| 20260901141604 | 82 | 215 | 1.0 | 3.0 | 0.00 | 0.00 | 0.00 | 78 | 1014.9 |
| 20260901141104 | 82 | 242 | 1.0 | 3.0 | 0.00 | 0.00 | 0.00 | 77 | 1014.8 |
| 20260901140604 | 82 | 107 | 0.0 | 1.0 | 0.00 | 0.00 | 0.00 | 77 | 1014.8 |
| 20260901140105 | 82 | 348 | 1.0 | 2.0 | 0.00 | 0.00 | 0.00 | 76 | 1014.8 |
| 20260901135105 | 83 | 248 | 0.0 | 3.0 | 0.00 | 0.00 | 0.00 | 77 | 1014.8 |
| 20260901134604 | 82 | 83 | 0.0 | 3.0 | 0.00 | 0.00 | 0.00 | 77 | 1014.8 |
| 20260901133605 | 83 | 349 | 1.0 | 3.0 | 0.00 | 0.00 | 0.00 | 77 | 1014.7 |
| 20260901133105 | 82 | 339 | 1.0 | 3.0 | 0.00 | 0.00 | 0.00 | 78 | 1014.8 |
| 20260901132604 | 82 | 238 | 1.0 | 3.0 | 0.00 | 0.00 | 0.00 | 78 | 1014.9 |
| 20260901132104 | 82 | 215 | 0.0 | 5.0 | 0.00 | 0.00 | 0.00 | 79 | 1014.9 |
| 20260901131605 | 81 | 224 | 1.0 | 3.0 | 0.00 | 0.00 | 0.00 | 79 | 1015.0 |
| 20260901131105 | 81 | 278 | 2.0 | 3.0 | 0.00 | 0.00 | 0.00 | 79 | 1015.1 |
| 20260901130605 | 81 | 291 | 1.0 | 5.0 | 0.00 | 0.00 | 0.00 | 79 | 1015.2 |
| 20260901125604 | 80 | 10 | 1.0 | 3.0 | 0.00 | 0.00 | 0.00 | 80 | 1015.1 |
| 20260901125105 | 80 | 223 | 0.0 | 2.0 | 0.00 | 0.00 | 0.00 | 81 | 1015.2 |
| 20260901124604 | 80 | 218 | 0.0 | 2.0 | 0.00 | 0.00 | 0.00 | 82 | 1015.2 |
| 20260901124105 | 79 | 272 | 1.0 | 2.0 | 0.00 | 0.00 | 0.00 | 82 | 1015.2 |
| 20260901123604 | 79 | 280 | 1.0 | 3.0 | 0.00 | 0.00 | 0.00 | 82 | 1015.3 |
| 20260901123105 | 78 | 241 | 0.0 | 3.0 | 0.00 | 0.00 | 0.00 | 83 | 1015.2 |
| 20260901122605 | 77 | 247 | 0.0 | 3.0 | 0.00 | 0.00 | 0.00 | 85 | 1015.3 |
| 20260901122104 | 77 | 231 | 1.0 | 3.0 | 0.00 | 0.00 | 0.00 | 87 | 1015.3 |
| 20260901121604 | 76 | 179 | 0.0 | 3.0 | 0.00 | 0.00 | 0.00 | 90 | 1015.3 |
| 20260901120605 | 76 | 294 | 0.0 | 0.0 | 0.00 | 0.00 | 0.00 | 94 | 1015.3 |
| 20260901120105 | 75 | 293 | 0.0 | 2.0 | 0.00 | 0.00 | 0.00 | 94 | 1015.4 |
| 20260901115605 | 75 | 263 | 0.0 | 2.0 | 0.00 | 0.00 | 0.00 | 94 | 1015.5 |
| 20260901114104 | 74 | 220 | 0.0 | 1.0 | 0.00 | 0.00 | 0.00 | 95 | 1015.5 |
| 20260901113605 | 74 | 226 | 0.0 | 1.0 | 0.00 | 0.00 | 0.00 | 95 | 1015.5 |
| 20260901113104 | 73 | 226 | 0.0 | 1.0 | 0.00 | 0.00 | 0.00 | 95 | 1015.5 |
| 20260901111605 | 73 | 241 | 0.0 | 1.0 | 0.00 | 0.00 | 0.00 | 94 | 1015.5 |
| 20260901111104 | 73 | 236 | 0.0 | 0.0 | 0.00 | 0.00 | 0.00 | 94 | 1015.5 |
| 20260901110604 | 73 | 225 | 0.0 | 2.0 | 0.00 | 0.00 | 0.00 | 94 | 1015.4 |
| 20260901110104 | 73 | 221 | 0.0 | 1.0 | 0.00 | 0.00 | 0.00 | 94 | 1015.4 |
| 20260901105105 | 73 | 221 | 0.0 | 1.0 | 0.00 | 0.00 | 0.00 | 94 | 1015.5 |
| 20260901104604 | 73 | 221 | 0.0 | 2.0 | 0.00 | 0.00 | 0.00 | 94 | 1015.4 |
| 20260901104104 | 73 | 221 | 0.0 | 0.0 | 0.00 | 0.00 | 0.00 | 94 | 1015.5 |
| 20260901103104 | 73 | 221 | 0.0 | 1.0 | 0.00 | 0.00 | 0.00 | 94 | 1015.5 |
| 20260901102605 | 73 | 221 | 0.0 | 0.0 | 0.00 | 0.00 | 0.00 | 94 | 1015.4 |
| 20260901101604 | 73 | 141 | 0.0 | 0.0 | 0.00 | 0.00 | 0.00 | 94 | 1015.3 |
| 20260901101105 | 73 | 141 | 0.0 | 1.0 | 0.00 | 0.00 | 0.00 | 94 | 1015.2 |
| 20260901100604 | 73 | 141 | 0.0 | 1.0 | 0.00 | 0.00 | 0.00 | 94 | 1015.2 |
| 20260901094604 | 73 | 223 | 0.0 | 0.0 | 0.00 | 0.00 | 0.00 | 93 | 1015.1 |
| 20260901094104 | 73 | 223 | 0.0 | 1.0 | 0.00 | 0.00 | 0.00 | 93 | 1015.1 |
| 20260901093604 | 73 | 126 | 0.0 | 1.0 | 0.00 | 0.00 | 0.00 | 93 | 1015.2 |
| 20260901092605 | 73 | 233 | 0.0 | 0.0 | 0.00 | 0.00 | 0.00 | 93 | 1015.5 |
| 20260901092105 | 73 | 233 | 0.0 | 1.0 | 0.00 | 0.00 | 0.00 | 93 | 1015.6 |
| 20260901091604 | 73 | 233 | 0.0 | 0.0 | 0.00 | 0.00 | 0.00 | 93 | 1015.6 |
| 20260901091105 | 73 | 233 | 0.0 | 2.0 | 0.00 | 0.00 | 0.00 | 93 | 1015.6 |
| 20260901090104 | 73 | 281 | 0.0 | 0.0 | 0.00 | 0.00 | 0.00 | 93 | 1015.6 |
| 20260901085604 | 73 | 279 | 0.0 | 1.0 | 0.00 | 0.00 | 0.00 | 93 | 1015.5 |
| 20260901085104 | 73 | 279 | 0.0 | 1.0 | 0.00 | 0.00 | 0.00 | 93 | 1015.6 |
| 20260901084604 | 73 | 283 | 0.0 | 1.0 | 0.00 | 0.00 | 0.00 | 93 | 1015.6 |
| 20260901083604 | 74 | 290 | 0.0 | 3.0 | 0.00 | 0.00 | 0.00 | 93 | 1015.7 |
| 20260901083104 | 74 | 110 | 0.0 | 1.0 | 0.00 | 0.00 | 0.00 | 93 | 1015.7 |
| 20260901082604 | 74 | 112 | 0.0 | 3.0 | 0.00 | 0.00 | 0.00 | 93 | 1015.5 |
| 20260901082105 | 74 | 148 | 0.0 | 2.0 | 0.00 | 0.00 | 0.00 | 93 | 1015.5 |
| 20260901081605 | 73 | 167 | 0.0 | 0.0 | 0.00 | 0.00 | 0.00 | 92 | 1015.6 |
| 20260901081105 | 73 | 163 | 0.0 | 2.0 | 0.00 | 0.00 | 0.00 | 92 | 1015.6 |
| 20260901080605 | 73 | 237 | 0.0 | 1.0 | 0.00 | 0.00 | 0.00 | 92 | 1015.5 |
| 20260901075605 | 73 | 246 | 0.0 | 1.0 | 0.00 | 0.00 | 0.00 | 91 | 1015.5 |
| 20260901075104 | 73 | 252 | 0.0 | 2.0 | 0.00 | 0.00 | 0.00 | 91 | 1015.5 |
| 20260901074604 | 73 | 262 | 0.0 | 1.0 | 0.00 | 0.00 | 0.00 | 91 | 1015.6 |
| 20260901074104 | 73 | 131 | 0.0 | 1.0 | 0.00 | 0.00 | 0.00 | 91 | 1015.6 |
| 20260901073604 | 73 | 139 | 1.0 | 3.0 | 0.00 | 0.00 | 0.00 | 90 | 1015.6 |
| 20260901073105 | 73 | 99 | 0.0 | 1.0 | 0.00 | 0.00 | 0.00 | 90 | 1015.7 |
| 20260901072105 | 73 | 148 | 0.0 | 1.0 | 0.00 | 0.00 | 0.00 | 90 | 1015.8 |
| 20260901071604 | 73 | 80 | 0.0 | 2.0 | 0.00 | 0.00 | 0.00 | 90 | 1015.8 |
| 20260901070604 | 73 | 192 | 0.0 | 1.0 | 0.00 | 0.00 | 0.00 | 89 | 1015.8 |
| 20260901070104 | 73 | 232 | 0.0 | 1.0 | 0.00 | 0.00 | 0.00 | 89 | 1015.8 |
| 20260901065604 | 73 | 153 | 0.0 | 2.0 | 0.00 | 0.00 | 0.00 | 89 | 1015.9 |
| 20260901064605 | 73 | 201 | 0.0 | 0.0 | 0.00 | 0.00 | 0.00 | 88 | 1016.0 |
| 20260901064105 | 73 | 201 | 0.0 | 1.0 | 0.00 | 0.00 | 0.00 | 87 | 1016.0 |
| 20260901063604 | 73 | 207 | 0.0 | 1.0 | 0.00 | 0.00 | 0.00 | 86 | 1016.1 |
| 20260901062104 | 73 | 124 | 0.0 | 1.0 | 0.00 | 0.00 | 0.00 | 86 | 1016.1 |
| 20260901061604 | 73 | 174 | 0.0 | 2.0 | 0.00 | 0.00 | 0.00 | 85 | 1016.1 |
| 20260901061104 | 73 | 174 | 0.0 | 1.0 | 0.00 | 0.00 | 0.00 | 85 | 1016.2 |
| 20260901060604 | 73 | 132 | 0.0 | 0.0 | 0.00 | 0.00 | 0.00 | 85 | 1016.3 |
| 20260901060104 | 73 | 132 | 0.0 | 0.0 | 0.00 | 0.00 | 0.00 | 85 | 1016.4 |
| 20260901055604 | 73 | 132 | 0.0 | 1.0 | 0.00 | 0.00 | 0.00 | 84 | 1016.5 |
| 20260901055104 | 73 | 129 | 0.0 | 0.0 | 0.00 | 0.00 | 0.00 | 84 | 1016.5 |
| 20260901054604 | 73 | 129 | 0.0 | 3.0 | 0.00 | 0.00 | 0.00 | 84 | 1016.6 |
| 20260901053604 | 73 | 157 | 0.0 | 2.0 | 0.00 | 0.00 | 0.00 | 84 | 1016.5 |
| 20260901053104 | 73 | 195 | 0.0 | 2.0 | 0.00 | 0.00 | 0.00 | 84 | 1016.7 |
| 20260901052604 | 73 | 153 | 1.0 | 3.0 | 0.00 | 0.00 | 0.00 | 84 | 1016.8 |
| 20260901051604 | 73 | 211 | 1.0 | 2.0 | 0.00 | 0.00 | 0.00 | 84 | 1016.8 |
| 20260901051105 | 73 | 183 | 1.0 | 2.0 | 0.00 | 0.00 | 0.00 | 84 | 1016.8 |
| 20260901050604 | 73 | 189 | 1.0 | 2.0 | 0.00 | 0.00 | 0.00 | 84 | 1016.8 |
| 20260901050104 | 72 | 143 | 0.0 | 1.0 | 0.00 | 0.00 | 0.00 | 84 | 1016.9 |
| 20260901045604 | 72 | 139 | 0.0 | 1.0 | 0.00 | 0.00 | 0.00 | 84 | 1016.9 |
| 20260901045104 | 72 | 145 | 0.0 | 1.0 | 0.00 | 0.00 | 0.00 | 83 | 1017.0 |
| 20260901044604 | 72 | 145 | 0.0 | 0.0 | 0.00 | 0.00 | 0.00 | 83 | 1017.0 |
| 20260901044105 | 72 | 145 | 0.0 | 1.0 | 0.00 | 0.00 | 0.00 | 83 | 1017.1 |
| 20260901043604 | 72 | 149 | 0.0 | 1.0 | 0.00 | 0.00 | 0.00 | 83 | 1017.1 |
| 20260901043105 | 72 | 178 | 0.0 | 0.0 | 0.00 | 0.00 | 0.00 | 83 | 1017.2 |
| 20260901042104 | 72 | 148 | 0.0 | 0.0 | 0.00 | 0.00 | 0.00 | 83 | 1017.2 |
| 20260901041604 | 72 | 148 | 0.0 | 0.0 | 0.00 | 0.00 | 0.00 | 83 | 1017.2 |
| 20260901041105 | 73 | 148 | 0.0 | 0.0 | 0.00 | 0.00 | 0.00 | 83 | 1017.2 |
| 20260901040604 | 73 | 149 | 0.0 | 0.0 | 0.00 | 0.00 | 0.00 | 82 | 1017.2 |
| 20260901040104 | 73 | 149 | 0.0 | 0.0 | 0.00 | 0.00 | 0.00 | 82 | 1017.2 |
| 20260901035605 | 73 | 149 | 0.0 | 0.0 | 0.00 | 0.00 | 0.00 | 82 | 1017.2 |
| 20260901035104 | 73 | 148 | 0.0 | 0.0 | 0.00 | 0.00 | 0.00 | 83 | 1017.1 |
| 20260901034605 | 73 | 150 | 0.0 | 1.0 | 0.00 | 0.00 | 0.00 | 83 | 1017.1 |
| 20260901034104 | 73 | 186 | 0.0 | 1.0 | 0.00 | 0.00 | 0.00 | 82 | 1017.3 |
| 20260901033604 | 73 | 134 | 0.0 | 0.0 | 0.00 | 0.00 | 0.00 | 82 | 1017.3 |
| 20260901032604 | 73 | 198 | 1.0 | 2.0 | 0.00 | 0.00 | 0.00 | 82 | 1017.3 |
| 20260901032104 | 73 | 145 | 0.0 | 0.0 | 0.00 | 0.00 | 0.00 | 82 | 1017.4 |
| 20260901031604 | 73 | 145 | 0.0 | 1.0 | 0.00 | 0.00 | 0.00 | 82 | 1017.2 |
| 20260901031105 | 73 | 145 | 0.0 | 1.0 | 0.00 | 0.00 | 0.00 | 82 | 1017.3 |
| 20260901030104 | 73 | 171 | 0.0 | 1.0 | 0.00 | 0.00 | 0.00 | 82 | 1017.2 |
| 20260901025604 | 73 | 143 | 0.0 | 1.0 | 0.00 | 0.00 | 0.00 | 82 | 1017.2 |
| 20260901025104 | 73 | 159 | 1.0 | 3.0 | 0.00 | 0.00 | 0.00 | 81 | 1017.3 |
| 20260901024605 | 73 | 157 | 0.0 | 2.0 | 0.00 | 0.00 | 0.00 | 81 | 1017.3 |
| 20260901023604 | 73 | 188 | 1.0 | 2.0 | 0.00 | 0.00 | 0.00 | 81 | 1017.3 |
| 20260901023104 | 73 | 177 | 1.0 | 3.0 | 0.00 | 0.00 | 0.00 | 81 | 1017.3 |
| 20260901022604 | 73 | 147 | 0.0 | 3.0 | 0.00 | 0.00 | 0.00 | 81 | 1017.4 |
| 20260901022104 | 73 | 168 | 1.0 | 3.0 | 0.00 | 0.00 | 0.00 | 81 | 1017.5 |
| 20260901021604 | 73 | 119 | 0.0 | 3.0 | 0.00 | 0.00 | 0.00 | 80 | 1017.5 |
| 20260901020604 | 73 | 242 | 1.0 | 1.0 | 0.00 | 0.00 | 0.00 | 80 | 1017.5 |
| 20260901020105 | 73 | 151 | 0.0 | 3.0 | 0.00 | 0.00 | 0.00 | 80 | 1017.5 |
| 20260901015104 | 73 | 181 | 0.0 | 2.0 | 0.00 | 0.00 | 0.00 | 80 | 1017.4 |
| 20260901014604 | 74 | 207 | 1.0 | 3.0 | 0.00 | 0.00 | 0.00 | 80 | 1017.4 |
| 20260901014104 | 74 | 154 | 1.0 | 3.0 | 0.00 | 0.00 | 0.00 | 80 | 1017.5 |
| 20260901013604 | 74 | 170 | 1.0 | 2.0 | 0.00 | 0.00 | 0.00 | 80 | 1017.4 |
| 20260901013104 | 74 | 199 | 1.0 | 2.0 | 0.00 | 0.00 | 0.00 | 80 | 1017.4 |
| 20260901012604 | 74 | 228 | 1.0 | 3.0 | 0.00 | 0.00 | 0.00 | 80 | 1017.3 |
| 20260901012105 | 74 | 213 | 1.0 | 3.0 | 0.00 | 0.00 | 0.00 | 79 | 1017.3 |
| 20260901011604 | 74 | 142 | 1.0 | 3.0 | 0.00 | 0.00 | 0.00 | 79 | 1017.4 |
| 20260901010605 | 75 | 154 | 1.0 | 3.0 | 0.00 | 0.00 | 0.00 | 79 | 1017.4 |
| 20260901010104 | 75 | 166 | 1.0 | 3.0 | 0.00 | 0.00 | 0.00 | 79 | 1017.3 |
| 20260901005606 | 75 | 202 | 0.0 | 3.0 | 0.00 | 0.00 | 0.00 | 79 | 1017.4 |
| 20260901005106 | 75 | 160 | 0.0 | 2.0 | 0.00 | 0.00 | 0.00 | 79 | 1017.4 |
| 20260901003604 | 75 | 167 | 1.0 | 2.0 | 0.00 | 0.00 | 0.00 | 78 | 1017.2 |
| 20260901003105 | 76 | 83 | 1.0 | 3.0 | 0.00 | 0.00 | 0.00 | 78 | 1017.2 |
| 20260901002605 | 76 | 151 | 0.0 | 1.0 | 0.00 | 0.00 | 0.00 | 78 | 1017.1 |
| 20260901001104 | 77 | 139 | 0.0 | 2.0 | 0.00 | 0.00 | 0.00 | 77 | 1016.9 |
| 20260901000605 | 77 | 158 | 1.0 | 3.0 | 0.00 | 0.00 | 0.00 | 77 | 1016.8 |
| 20260901000104 | 77 | 207 | 0.0 | 2.0 | 0.00 | 0.00 | 0.00 | 76 | 1016.9 |
| 20260831235605 | 77 | 84 | 0.0 | 3.0 | 0.00 | 0.00 | 0.00 | 76 | 1016.9 |
| 20260831235105 | 78 | 162 | 1.0 | 3.0 | 0.00 | 0.00 | 0.00 | 75 | 1016.9 |
| 20260831234104 | 78 | 138 | 1.0 | 3.0 | 0.00 | 0.00 | 0.00 | 72 | 1016.9 |
| 20260831233604 | 78 | 170 | 0.0 | 2.0 | 0.00 | 0.00 | 0.00 | 70 | 1017.0 |
| 20260831232605 | 78 | 239 | 0.0 | 1.0 | 0.00 | 0.00 | 0.00 | 70 | 1017.2 |
| 20260831232104 | 79 | 239 | 0.0 | 0.0 | 0.00 | 0.00 | 0.00 | 69 | 1017.2 |
| 20260831231604 | 79 | 239 | 0.0 | 1.0 | 0.00 | 0.00 | 0.00 | 69 | 1017.2 |
| 20260831231105 | 79 | 239 | 0.0 | 0.0 | 0.00 | 0.00 | 0.00 | 69 | 1017.2 |
| 20260831230105 | 79 | 239 | 0.0 | 1.0 | 0.00 | 0.00 | 0.00 | 69 | 1017.2 |
| 20260831225605 | 79 | 156 | 0.0 | 0.0 | 0.00 | 0.00 | 0.00 | 70 | 1017.2 |
| 20260831224605 | 80 | 201 | 1.0 | 2.0 | 0.00 | 0.00 | 0.00 | 70 | 1017.1 |
| 20260831224104 | 80 | 196 | 0.0 | 2.0 | 0.00 | 0.00 | 0.00 | 70 | 1017.2 |
| 20260831223605 | 80 | 106 | 0.0 | 1.0 | 0.00 | 0.00 | 0.00 | 67 | 1017.3 |
| 20260831223105 | 80 | 86 | 0.0 | 1.0 | 0.00 | 0.00 | 0.00 | 67 | 1017.4 |
| 20260831222104 | 80 | 189 | 2.0 | 5.0 | 0.00 | 0.00 | 0.00 | 71 | 1017.5 |
| 20260831221604 | 80 | 4 | 1.0 | 3.0 | 0.00 | 0.00 | 0.00 | 71 | 1017.4 |
| 20260831220105 | 80 | 355 | 0.0 | 1.0 | 0.00 | 0.00 | 0.00 | 69 | 1017.5 |
| 20260831215604 | 81 | 352 | 0.0 | 1.0 | 0.00 | 0.00 | 0.00 | 68 | 1017.5 |
| 20260831215105 | 81 | 352 | 0.0 | 0.0 | 0.00 | 0.00 | 0.00 | 66 | 1017.7 |
| 20260831214604 | 81 | 352 | 0.0 | 0.0 | 0.00 | 0.00 | 0.00 | 66 | 1017.6 |
| 20260831214105 | 81 | 352 | 0.0 | 1.0 | 0.00 | 0.00 | 0.00 | 65 | 1017.6 |
| 20260831213604 | 81 | 352 | 0.0 | 0.0 | 0.00 | 0.00 | 0.00 | 65 | 1017.7 |
| 20260831213104 | 81 | 352 | 0.0 | 0.0 | 0.00 | 0.00 | 0.00 | 66 | 1017.7 |
| 20260831212604 | 81 | 352 | 0.0 | 1.0 | 0.00 | 0.00 | 0.00 | 65 | 1017.6 |
| 20260831211605 | 82 | 339 | 0.0 | 1.0 | 0.00 | 0.00 | 0.00 | 65 | 1017.5 |
| 20260831211104 | 82 | 345 | 0.0 | 1.0 | 0.00 | 0.00 | 0.00 | 65 | 1017.6 |
| 20260831210605 | 81 | 345 | 0.0 | 0.0 | 0.00 | 0.00 | 0.00 | 65 | 1017.6 |
| 20260831210104 | 81 | 345 | 0.0 | 1.0 | 0.00 | 0.00 | 0.00 | 65 | 1017.7 |
| 20260831205604 | 82 | 346 | 1.0 | 3.0 | 0.00 | 0.00 | 0.00 | 65 | 1017.7 |
| 20260831204105 | 81 | 354 | 0.0 | 1.0 | 0.00 | 0.00 | 0.00 | 66 | 1017.6 |
| 20260831203104 | 81 | 248 | 0.0 | 1.0 | 0.00 | 0.00 | 0.00 | 64 | 1017.7 |
| 20260831201105 | 82 | 296 | 0.0 | 1.0 | 0.00 | 0.00 | 0.00 | 64 | 1017.9 |
| 20260831200604 | 82 | 229 | 1.0 | 2.0 | 0.00 | 0.00 | 0.00 | 63 | 1017.9 |
| 20260831200105 | 82 | 143 | 0.0 | 2.0 | 0.00 | 0.00 | 0.00 | 64 | 1017.8 |
| 20260831194604 | 82 | 290 | 0.0 | 3.0 | 0.00 | 0.00 | 0.00 | 65 | 1018.2 |
| 20260831194104 | 82 | 14 | 0.0 | 1.0 | 0.00 | 0.00 | 0.00 | 63 | 1018.2 |
| 20260831193604 | 82 | 311 | 0.0 | 2.0 | 0.00 | 0.00 | 0.00 | 64 | 1018.2 |
| 20260831193104 | 82 | 20 | 0.0 | 1.0 | 0.00 | 0.00 | 0.00 | 64 | 1018.3 |
| 20260831191605 | 82 | 349 | 0.0 | 1.0 | 0.00 | 0.00 | 0.00 | 64 | 1018.4 |
| 20260831191104 | 82 | 1 | 0.0 | 2.0 | 0.00 | 0.00 | 0.00 | 64 | 1018.4 |
| 20260831190604 | 82 | 345 | 1.0 | 2.0 | 0.00 | 0.00 | 0.00 | 64 | 1018.4 |
| 20260831190104 | 82 | 352 | 1.0 | 2.0 | 0.00 | 0.00 | 0.00 | 64 | 1018.5 |
| 20260831185604 | 82 | 76 | 0.0 | 1.0 | 0.00 | 0.00 | 0.00 | 63 | 1018.5 |
| 20260831185104 | 82 | 357 | 0.0 | 1.0 | 0.00 | 0.00 | 0.00 | 62 | 1018.5 |
| 20260831184604 | 83 | 17 | 0.0 | 1.0 | 0.00 | 0.00 | 0.00 | 62 | 1018.5 |
| 20260831183604 | 83 | 308 | 0.0 | 3.0 | 0.00 | 0.00 | 0.00 | 62 | 1018.5 |
| 20260831183104 | 83 | 220 | 1.0 | 2.0 | 0.00 | 0.00 | 0.00 | 64 | 1018.4 |
| 20260831182104 | 83 | 226 | 1.0 | 3.0 | 0.00 | 0.00 | 0.00 | 62 | 1018.4 |
| 20260831181604 | 83 | 224 | 0.0 | 2.0 | 0.00 | 0.00 | 0.00 | 61 | 1018.5 |
| 20260831180604 | 83 | 192 | 1.0 | 3.0 | 0.00 | 0.00 | 0.00 | 61 | 1018.6 |
| 20260831180104 | 83 | 0 | 0.0 | 3.0 | 0.00 | 0.00 | 0.00 | 60 | 1018.7 |
| 20260831175604 | 84 | 196 | 0.0 | 3.0 | 0.00 | 0.00 | 0.00 | 61 | 1018.6 |
| 20260831175105 | 84 | 235 | 2.0 | 3.0 | 0.00 | 0.00 | 0.00 | 59 | 1018.6 |
| 20260831174104 | 84 | 132 | 1.0 | 3.0 | 0.00 | 0.00 | 0.00 | 60 | 1018.7 |
| 20260831173605 | 84 | 218 | 1.0 | 3.0 | 0.00 | 0.00 | 0.00 | 61 | 1018.7 |
| 20260831172604 | 83 | 206 | 1.0 | 2.0 | 0.00 | 0.00 | 0.00 | 62 | 1018.6 |
| 20260831172104 | 83 | 90 | 1.0 | 2.0 | 0.00 | 0.00 | 0.00 | 61 | 1018.6 |
| 20260831171605 | 83 | 146 | 1.0 | 5.0 | 0.00 | 0.00 | 0.00 | 60 | 1018.7 |
| 20260831171104 | 84 | 222 | 1.0 | 3.0 | 0.00 | 0.00 | 0.00 | 59 | 1018.7 |
| 20260831170604 | 84 | 116 | 1.0 | 3.0 | 0.00 | 0.00 | 0.00 | 62 | 1018.7 |
| 20260831165604 | 83 | 250 | 1.0 | 3.0 | 0.00 | 0.00 | 0.00 | 60 | 1018.9 |
| 20260831165104 | 84 | 353 | 0.0 | 2.0 | 0.00 | 0.00 | 0.00 | 62 | 1018.9 |
| 20260831164604 | 83 | 287 | 0.0 | 3.0 | 0.00 | 0.00 | 0.00 | 64 | 1018.9 |
| 20260831164104 | 83 | 231 | 1.0 | 3.0 | 0.00 | 0.00 | 0.00 | 63 | 1018.9 |
| 20260831163104 | 83 | 246 | 1.0 | 3.0 | 0.00 | 0.00 | 0.00 | 63 | 1019.1 |
| 20260831162604 | 82 | 238 | 1.0 | 2.0 | 0.00 | 0.00 | 0.00 | 63 | 1019.0 |
| 20260831162104 | 82 | 188 | 2.0 | 3.0 | 0.00 | 0.00 | 0.00 | 62 | 1018.9 |
| 20260831161604 | 82 | 206 | 2.0 | 3.0 | 0.00 | 0.00 | 0.00 | 62 | 1018.9 |
| 20260831161105 | 82 | 226 | 2.0 | 3.0 | 0.00 | 0.00 | 0.00 | 63 | 1018.9 |
| 20260831160604 | 82 | 135 | 1.0 | 3.0 | 0.00 | 0.00 | 0.00 | 64 | 1018.9 |
| 20260831160105 | 81 | 327 | 0.0 | 3.0 | 0.00 | 0.00 | 0.00 | 64 | 1019.0 |
| 20260831155604 | 81 | 126 | 1.0 | 2.0 | 0.00 | 0.00 | 0.00 | 65 | 1019.0 |
| 20260831155104 | 81 | 234 | 1.0 | 3.0 | 0.00 | 0.00 | 0.00 | 66 | 1019.0 |
| 20260831154605 | 80 | 218 | 0.0 | 2.0 | 0.00 | 0.00 | 0.00 | 67 | 1019.0 |
| 20260831154104 | 80 | 186 | 0.0 | 3.0 | 0.00 | 0.00 | 0.00 | 67 | 1018.9 |
| 20260831153605 | 79 | 37 | 0.0 | 2.0 | 0.00 | 0.00 | 0.00 | 68 | 1019.1 |
| 20260831153104 | 79 | 344 | 0.0 | 1.0 | 0.00 | 0.00 | 0.00 | 69 | 1019.1 |
| 20260831152604 | 78 | 14 | 1.0 | 2.0 | 0.00 | 0.00 | 0.00 | 68 | 1019.2 |
| 20260831152104 | 78 | 178 | 0.0 | 2.0 | 0.00 | 0.00 | 0.00 | 69 | 1019.1 |